Change the Weather History Date:

Saturday, November 2, 2013

  Actual Average Record
Temperature  
Mean Temperature 42 °F -  
Max Temperature 63 °F 52 °F 78 °F (1983)
Min Temperature 22 °F 28 °F -3 °F (1951)
Degree Days  
Heating Degree Days 22    
Moisture  
Dew Point 24 °F    
Average Humidity 55    
Maximum Humidity 89    
Minimum Humidity 21    
Precipitation  
Precipitation 0.00 in - - ()
Sea Level Pressure  
Sea Level Pressure 30.06 in    
Wind  
Wind Speed 8 mph (SSW)    
Max Wind Speed 17 mph    
Max Gust Speed 25 mph    
Visibility 10 miles    
Events      
Averages and records for this station are not official NWS values.
T = Trace of Precipitation, MM = Missing Value Source: NWS Daily Summary

Daily Weather History Graph

Daily Weather History Graph

Search for Another Location

Airport or City:

Trip Planner

Search our weather history database for the weather conditions in past years. The results will help you decide how hot, cold, wet, or windy it might be!

Date:

Astronomy

Nov. 02, 2013 Rise Set
Actual Time 7:19 AM MDT 5:41 PM MDT
Civil Twilight 6:50 AM MDT 6:09 PM MDT
Nautical Twilight 6:18 AM MDT 6:42 PM MDT
Astronomical Twilight 5:46 AM MDT 7:14 PM MDT
Moon 6:18 AM MDT (11/2) 5:14 PM MDT (11/2)
Length of Visible Light 11h 18m
Length of Day
10h 21m
Waning Crescent, 1% of the Moon is Illuminated
Nov 2
Waning Crescent
Nov 3
New
Nov 9
First Quarter
Nov 17
Full
Nov 25
Last Quarter

Hourly Weather History & Observations

Time (MDT) Temp. Windchill Dew Point Humidity Pressure Visibility Wind Dir Wind Speed Gust Speed Precip Events Conditions
12:15 AM 28.0 °F 21.7 °F 21.0 °F 75% 30.18 in 10.0 mi West 5.8 mph - N/A   Clear
12:35 AM 28.0 °F 18.1 °F 22.3 °F 79% 30.19 in 10.0 mi West 11.5 mph - N/A   Clear
12:55 AM 29.8 °F 22.2 °F 23.0 °F 76% 30.20 in 10.0 mi West 8.1 mph - N/A   Clear
1:15 AM 30.2 °F 21.9 °F 23.0 °F 75% 30.21 in 10.0 mi WSW 9.2 mph - N/A   Clear
1:35 AM 29.1 °F 22.1 °F 22.6 °F 77% 30.21 in 10.0 mi WSW 6.9 mph - N/A   Clear
1:55 AM 27.0 °F 18.7 °F 22.1 °F 82% 30.22 in 10.0 mi WSW 8.1 mph - N/A   Clear
2:15 AM 28.0 °F 19.3 °F 22.6 °F 80% 30.21 in 10.0 mi WSW 9.2 mph - N/A   Clear
2:35 AM 27.0 °F 21.6 °F 21.6 °F 80% 30.22 in 10.0 mi West 4.6 mph - N/A   Clear
2:55 AM 25.5 °F 18.7 °F 21.0 °F 83% 30.21 in 10.0 mi West 5.8 mph - N/A   Clear
3:15 AM 26.6 °F 22.6 °F 21.9 °F 82% 30.21 in 10.0 mi WSW 3.5 mph - N/A   Clear
3:35 AM 25.7 °F 20.1 °F 21.7 °F 85% 30.21 in 10.0 mi WSW 4.6 mph - N/A   Clear
3:55 AM 25.9 °F 19.2 °F 22.1 °F 86% 30.21 in 10.0 mi West 5.8 mph - N/A   Clear
4:15 AM 26.6 °F 21.2 °F 22.6 °F 85% 30.22 in 10.0 mi West 4.6 mph - N/A   Clear
4:35 AM 25.7 °F 20.1 °F 21.9 °F 86% 30.22 in 10.0 mi WSW 4.6 mph - N/A   Clear
4:55 AM 25.5 °F 16.9 °F 22.1 °F 87% 30.22 in 10.0 mi WSW 8.1 mph - N/A   Clear
5:15 AM 24.6 °F 16.7 °F 21.2 °F 87% 30.22 in 10.0 mi WSW 6.9 mph - N/A   Clear
5:35 AM 24.6 °F 17.7 °F 21.7 °F 89% 30.22 in 10.0 mi WSW 5.8 mph - N/A   Clear
5:55 AM 23.2 °F 17.2 °F 20.1 °F 88% 30.21 in 10.0 mi West 4.6 mph - N/A   Clear
6:15 AM 23.0 °F 15.8 °F 20.1 °F 89% 30.22 in 10.0 mi West 5.8 mph - N/A   Clear
6:35 AM 23.5 °F 15.4 °F 20.8 °F 89% 30.22 in 10.0 mi WSW 6.9 mph - N/A   Clear
6:55 AM 23.0 °F - 20.3 °F 89% 30.22 in 10.0 mi Calm Calm - N/A   Clear
7:15 AM 22.8 °F - 20.1 °F 89% 30.21 in 10.0 mi Calm Calm - N/A   Clear
7:35 AM 22.5 °F - 19.4 °F 88% 30.21 in 10.0 mi Calm Calm - N/A   Clear
7:55 AM 23.5 °F - 20.3 °F 87% 30.20 in 10.0 mi Calm Calm - N/A   Clear
8:15 AM 25.5 °F - 22.1 °F 87% 30.21 in 10.0 mi Calm Calm - N/A   Clear
8:35 AM 28.2 °F 24.4 °F 24.8 °F 87% 30.22 in 10.0 mi WSW 3.5 mph - N/A   Clear
8:55 AM 32.0 °F 27.5 °F 25.7 °F 78% 30.22 in 10.0 mi WSW 4.6 mph - N/A   Clear
9:15 AM 35.4 °F 30.5 °F 27.0 °F 71% 30.22 in 10.0 mi West 5.8 mph - N/A   Clear
9:35 AM 38.7 °F 36.3 °F 27.9 °F 65% 30.21 in 10.0 mi WSW 3.5 mph - N/A   Clear
9:55 AM 40.6 °F - 28.2 °F 61% 30.21 in 10.0 mi Calm Calm - N/A   Clear
11:15 AM 55.0 °F - 24.6 °F 31% 30.16 in 10.0 mi SSW 11.5 mph - N/A   Clear
11:35 AM 56.5 °F - 24.3 °F 29% 30.16 in 10.0 mi SSW 15.0 mph 20.7 mph N/A   Clear
11:55 AM 57.9 °F - 24.8 °F 28% 30.15 in 10.0 mi SSW 13.8 mph 18.4 mph N/A   Clear
12:15 PM 58.8 °F - 24.6 °F 27% 30.13 in 10.0 mi SSW 13.8 mph - N/A   Clear
12:35 PM 59.5 °F - 24.4 °F 26% 30.11 in 10.0 mi South 11.5 mph - N/A   Clear
12:55 PM 60.3 °F - 23.9 °F 25% 30.09 in 10.0 mi South 17.3 mph 25.3 mph N/A   Clear
1:15 PM 61.0 °F - 24.1 °F 24% 30.07 in 10.0 mi South 11.5 mph 21.9 mph N/A   Clear
1:35 PM 61.7 °F - 24.3 °F 24% 30.06 in 10.0 mi South 11.5 mph 19.6 mph N/A   Clear
1:55 PM 61.7 °F - 23.7 °F 23% 30.04 in 10.0 mi South 15.0 mph - N/A   Clear
2:15 PM 62.4 °F - 23.7 °F 23% 30.03 in 10.0 mi South 13.8 mph 20.7 mph N/A   Clear
2:35 PM 62.8 °F - 23.5 °F 22% 30.02 in 10.0 mi South 15.0 mph 20.7 mph N/A   Clear
2:55 PM 63.1 °F - 23.9 °F 22% 30.00 in 10.0 mi South 16.1 mph 19.6 mph N/A   Clear
3:15 PM 63.5 °F - 23.7 °F 22% 29.99 in 10.0 mi South 17.3 mph 20.7 mph N/A   Clear
3:35 PM 63.7 °F - 23.2 °F 21% 29.98 in 10.0 mi South 17.3 mph 20.7 mph N/A   Clear
3:55 PM 63.5 °F - 23.2 °F 21% 29.97 in 10.0 mi South 15.0 mph 21.9 mph N/A   Clear
4:15 PM 63.0 °F - 23.4 °F 22% 29.96 in 10.0 mi South 16.1 mph 23.0 mph N/A   Clear
4:35 PM 62.6 °F - 23.7 °F 23% 29.95 in 10.0 mi South 17.3 mph 21.9 mph N/A   Clear
4:55 PM 61.7 °F - 23.7 °F 23% 29.94 in 10.0 mi South 11.5 mph 19.6 mph N/A   Clear
5:15 PM 59.9 °F - 24.6 °F 26% 29.93 in 10.0 mi South 10.4 mph - N/A   Clear
5:35 PM 57.6 °F - 24.8 °F 28% 29.92 in 10.0 mi South 10.4 mph - N/A   Clear
5:55 PM 55.4 °F - 24.8 °F 31% 29.91 in 10.0 mi SSE 9.2 mph - N/A   Clear
6:15 PM 54.0 °F - 24.8 °F 32% 29.90 in 10.0 mi ESE 4.6 mph - N/A   Clear
6:35 PM 52.7 °F - 24.8 °F 34% 29.89 in 10.0 mi SSE 8.1 mph - N/A   Clear
6:55 PM 52.5 °F - 25.2 °F 35% 29.89 in 10.0 mi South 12.7 mph 18.4 mph N/A   Clear
7:15 PM 52.7 °F - 25.2 °F 34% 29.88 in 10.0 mi South 15.0 mph 20.7 mph N/A   Clear
7:35 PM 52.7 °F - 25.3 °F 35% 29.88 in 10.0 mi South 17.3 mph 23.0 mph N/A   Clear
7:55 PM 51.3 °F - 25.5 °F 37% 29.88 in 10.0 mi South 11.5 mph 17.3 mph N/A   Clear
8:15 PM 49.8 °F - 26.1 °F 40% 29.88 in 10.0 mi South 8.1 mph - N/A   Clear
8:35 PM 48.2 °F - 26.4 °F 43% 29.86 in 10.0 mi Calm Calm - N/A   Clear
8:55 PM 48.4 °F - 26.8 °F 43% 29.86 in 10.0 mi ESE 3.5 mph - N/A   Clear
9:15 PM 47.3 °F - 27.1 °F 46% 29.86 in 10.0 mi NNE 3.5 mph - N/A   Clear
9:35 PM 46.2 °F - 27.5 °F 48% 29.85 in 10.0 mi Calm Calm - N/A   Clear
9:55 PM 46.4 °F 45.2 °F 28.2 °F 49% 29.84 in 10.0 mi NE 3.5 mph - N/A   Clear
10:15 PM 46.6 °F - 28.9 °F 50% 29.84 in 10.0 mi NNE 3.5 mph - N/A   Clear
10:35 PM 45.9 °F 41.2 °F 29.3 °F 52% 29.82 in 10.0 mi SSE 9.2 mph - N/A   Clear
10:55 PM 45.1 °F 40.8 °F 29.7 °F 55% 29.81 in 10.0 mi SSE 8.1 mph - N/A   Clear
11:15 PM 43.9 °F 39.3 °F 29.5 °F 57% 29.80 in 10.0 mi South 8.1 mph - N/A   Clear
11:35 PM 43.2 °F - 29.5 °F 59% 29.80 in 10.0 mi Calm Calm - N/A   Clear
11:55 PM 42.1 °F 40.2 °F 29.3 °F 61% 29.79 in 10.0 mi SSE 3.5 mph - N/A   Clear